Kuching, Malaysia

11:32 AM +08 on July 25, 2017 (GMT +0800)
Kuching International

Weather History for WBGG - November, 2012

Change the Weather History Date:

Thursday, November 29, 2012

  Actual Average Record
Temperature  
Mean Temperature 82 °F -  
Max Temperature 91 °F 87 °F - ()
Min Temperature 74 °F 73 °F - ()
Cooling Degree Days 18    
Growing Degree Days 32 (Base 50)    
Moisture  
Dew Point 76 °F    
Average Humidity 87    
Maximum Humidity 100    
Minimum Humidity 61    
Precipitation  
Precipitation 1.50 in 0.62 in - ()
Sea Level Pressure  
Sea Level Pressure 29.79 in    
Wind  
Wind Speed 3 mph ()    
Max Wind Speed 12 mph    
Max Gust Speed -    
Visibility 6.3 miles    
Events Rain , Thunderstorm    
T = Trace of Precipitation, MM = Missing Value Source: Averaged Metar Reports

Daily Weather History Graph

Daily Weather History Graph

Search for Another Location

Airport or City:

Trip Planner

Search our weather history database for the weather conditions in past years. The results will help you decide how hot, cold, wet, or windy it might be!

Date:

Astronomy

Nov. 29, 2012 Rise Set
Actual Time 6:25 AM +08 6:28 PM +08
Civil Twilight 6:03 AM +08 6:50 PM +08
Nautical Twilight 5:37 AM +08 7:16 PM +08
Astronomical Twilight 5:11 AM +08 7:42 PM +08
Moon 7:05 PM +08 (11/29) 6:44 AM +08 (11/29)
Length of Visible Light 12h 47m
Length of Day
12h 02m
Full, 100% of the Moon is Illuminated
Nov 29
Full
Dec 6
Last Quarter
Dec 13
New
Dec 20
First Quarter
Dec 28
Full

Hourly Weather History & Observations

Time (+08) Temp. Heat Index Dew Point Humidity Pressure Visibility Wind Dir Wind Speed Gust Speed Precip Events Conditions
12:00 AM 77.0 °F - 75.2 °F 94% 29.83 in 6.2 mi WSW 2.3 mph - N/A   Mostly Cloudy
12:30 AM 77.0 °F - 75.2 °F 94% 29.80 in 6.2 mi SSW 2.3 mph - N/A   Mostly Cloudy
1:00 AM 77.0 °F - 75.2 °F 94% 29.80 in 6.2 mi SW 2.3 mph - N/A   Mostly Cloudy
1:30 AM 77.0 °F - 75.2 °F 94% 29.80 in 6.2 mi South 2.3 mph - N/A   Mostly Cloudy
2:00 AM 76 °F - 75 °F 94% 29.81 in 9 mi SSW 2.3 mph - -   Partly Cloudy
2:00 AM 75.2 °F - 75.2 °F 100% 29.80 in 6.2 mi SSW 2.3 mph - N/A   Mostly Cloudy
2:30 AM 75.2 °F - 75.2 °F 100% 29.80 in 6.2 mi SSW 2.3 mph - N/A   Mostly Cloudy
3:00 AM 75.2 °F - 75.2 °F 100% 29.77 in 6.2 mi South 2.3 mph - N/A   Mostly Cloudy
3:30 AM 75.2 °F - 75.2 °F 100% 29.77 in 6.2 mi South 1.2 mph - N/A   Mostly Cloudy
4:00 AM 75.2 °F - 75.2 °F 100% 29.77 in 6.2 mi East 1.2 mph - N/A   Mostly Cloudy
4:30 AM 75.2 °F - 73.4 °F 94% 29.77 in 6.2 mi SSE 1.2 mph - N/A   Mostly Cloudy
5:00 AM 75 °F - 74 °F 96% 29.78 in 9 mi SSW 2.3 mph - -   Partly Cloudy
5:00 AM 75.2 °F - 73.4 °F 94% 29.77 in 6.2 mi SSW 2.3 mph - N/A   Mostly Cloudy
5:30 AM 75.2 °F - 73.4 °F 94% 29.77 in 6.2 mi SSW 1.2 mph - N/A   Mostly Cloudy
6:00 AM 75.2 °F - 73.4 °F 94% 29.77 in 6.2 mi West 1.2 mph - N/A   Mostly Cloudy
6:30 AM 75.2 °F - 73.4 °F 94% 29.77 in 6.2 mi South 1.2 mph - N/A   Mostly Cloudy
7:00 AM 75.2 °F - 73.4 °F 94% 29.80 in 6.2 mi SW 1.2 mph - N/A   Mostly Cloudy
7:30 AM 77.0 °F - 75.2 °F 94% 29.80 in 6.2 mi WSW 1.2 mph - N/A   Mostly Cloudy
8:00 AM 80 °F - 76 °F 84% 29.83 in 16 mi SSW 1.2 mph - -   Scattered Clouds
8:00 AM 80.6 °F 86.2 °F 75.2 °F 84% 29.83 in 6.2 mi SSW 1.2 mph - N/A   Mostly Cloudy
8:30 AM 82.4 °F 89.5 °F 75.2 °F 79% 29.83 in 6.2 mi ESE 1.2 mph - N/A   Mostly Cloudy
9:00 AM 84.2 °F 94.1 °F 77.0 °F 79% 29.83 in 6.2 mi ESE 2.3 mph - N/A   Mostly Cloudy
9:30 AM 84.2 °F 94.1 °F 77.0 °F 79% 29.86 in 6.2 mi SE 4.6 mph - N/A   Mostly Cloudy
10:00 AM 86.0 °F 96.9 °F 77.0 °F 74% 29.83 in 6.2 mi South 4.6 mph - N/A   Mostly Cloudy
10:30 AM 86.0 °F 96.9 °F 77.0 °F 74% 29.86 in 6.2 mi SSW 4.6 mph - N/A   Mostly Cloudy
11:00 AM 87 °F - 77 °F 65% 29.85 in 19 mi SSW 2.3 mph - -   Partly Cloudy
11:00 AM 86.0 °F 96.9 °F 77.0 °F 74% 29.83 in 6.2 mi SSW 2.3 mph - N/A   Mostly Cloudy
11:30 AM 89.6 °F 99.8 °F 75.2 °F 62% 29.83 in 6.2 mi SW 2.3 mph - N/A   Mostly Cloudy
12:00 PM 87.8 °F 99.7 °F 77.0 °F 70% 29.80 in 6.2 mi SSW 3.5 mph - N/A   Mostly Cloudy
12:30 PM 91.4 °F 105.1 °F 77.0 °F 63% 29.80 in 6.2 mi SW 3.5 mph - N/A   Mostly Cloudy
1:00 PM 91.4 °F 105.1 °F 77.0 °F 63% 29.80 in 6.2 mi East 4.6 mph - N/A   Mostly Cloudy
1:30 PM 87.8 °F 102.5 °F 78.8 °F 75% 29.77 in 6.2 mi NNW 10.4 mph - N/A   Mostly Cloudy
2:00 PM 89 °F - 77 °F 61% 29.76 in 12 mi NNW 10.4 mph - -   Partly Cloudy
2:00 PM 89.6 °F 102.2 °F 77.0 °F 66% 29.74 in 6.2 mi NNW 10.4 mph - N/A   Mostly Cloudy
2:30 PM 89.6 °F 102.2 °F 77.0 °F 66% 29.74 in 6.2 mi NNW 11.5 mph - N/A   Mostly Cloudy
3:00 PM 89.6 °F 102.2 °F 77.0 °F 66% 29.71 in 6.2 mi NNW 10.4 mph - N/A   Mostly Cloudy
3:30 PM 82.4 °F 92.4 °F 78.8 °F 89% 29.71 in 3.7 mi North 9.2 mph - N/A Rain , Thunderstorm Light Thunderstorms and Rain
4:00 PM 78.8 °F - 77.0 °F 94% 29.71 in 3.7 mi SW 5.8 mph - N/A Rain , Thunderstorm Light Thunderstorms and Rain
4:30 PM 77.0 °F - 75.2 °F 94% 29.74 in 0.5 mi SSW 6.9 mph - N/A Rain , Thunderstorm Thunderstorms and Rain
5:00 PM 76 °F - 75 °F 95% 29.75 in 1 mi WSW 3.5 mph - - Rain , Thunderstorm Thunderstorms and Rain
5:00 PM 77.0 °F - 75.2 °F 94% 29.74 in 1.2 mi WSW 3.5 mph - N/A Rain , Thunderstorm Thunderstorms and Rain
5:30 PM 77.0 °F - 75.2 °F 94% 29.74 in 2.5 mi North 3.5 mph - N/A Rain , Thunderstorm Thunderstorms and Rain
6:00 PM 77.0 °F - 75.2 °F 94% 29.74 in 5.0 mi SSE 2.3 mph - N/A Rain , Thunderstorm Light Thunderstorms and Rain
6:30 PM 77.0 °F - 75.2 °F 94% 29.77 in 6.2 mi SSW 3.5 mph - N/A Rain Light Rain
7:00 PM 77.0 °F - 75.2 °F 94% 29.77 in 5.0 mi WSW 3.5 mph - N/A Rain Light Rain
7:30 PM 77.0 °F - 75.2 °F 94% 29.80 in 6.2 mi South 2.3 mph - N/A   Mostly Cloudy
8:00 PM 77 °F - 76 °F 94% 29.82 in 6 mi SW 4.6 mph - - Rain Light Rain
8:00 PM 77.0 °F - 75.2 °F 94% 29.80 in 6.2 mi SW 4.6 mph - N/A   Mostly Cloudy
8:30 PM 77.0 °F - 75.2 °F 94% 29.83 in 6.2 mi SSW 3.5 mph - N/A   Mostly Cloudy
9:00 PM 77.0 °F - 75.2 °F 94% 29.83 in 6.2 mi SSW 2.3 mph - N/A   Mostly Cloudy
9:30 PM 77.0 °F - 75.2 °F 94% 29.83 in 6.2 mi East 1.2 mph - N/A   Mostly Cloudy
10:00 PM 77.0 °F - 75.2 °F 94% 29.83 in 6.2 mi South 2.3 mph - N/A   Mostly Cloudy
10:30 PM 77.0 °F - 75.2 °F 94% 29.83 in 6.2 mi SW 1.2 mph - N/A   Mostly Cloudy
11:00 PM 77 °F - 75 °F 90% 29.85 in 7 mi SSW 1.2 mph - -   Partly Cloudy
11:00 PM 77.0 °F - 75.2 °F 94% 29.83 in 6.2 mi SSW 1.2 mph - N/A   Mostly Cloudy
11:30 PM 77.0 °F - 75.2 °F 94% 29.83 in 6.2 mi South 2.3 mph - N/A   Mostly Cloudy